Henderson, NV

12:12 AM PST on February 27, 2017 (GMT -0800)
Henderson

Weather History for KHND - August, 2014

Change the Weather History Date:

Monday, August 18, 2014

  Actual Average (KLAS) Record (KLAS)
Temperature  
Mean Temperature 90 °F -  
Max Temperature 98 °F 99 °F 111 °F (1992)
Min Temperature 82 °F 73 °F 60 °F (1944)
Cooling Degree Days 25    
Growing Degree Days 40 (Base 50)    
Moisture  
Dew Point 49 °F    
Average Humidity 25    
Maximum Humidity 40    
Minimum Humidity 14    
Precipitation  
Precipitation 0.00 in - - ()
Sea Level Pressure  
Sea Level Pressure 29.78 in    
Wind  
Wind Speed 14 mph (SSE)    
Max Wind Speed 25 mph    
Max Gust Speed 34 mph    
Visibility 10 miles    
Events      
Averages and records for this station are not official NWS values.
T = Trace of Precipitation, MM = Missing Value Source: NWS Daily Summary

Daily Weather History Graph

Daily Weather History Graph

Search for Another Location

Airport or City:

Trip Planner

Search our weather history database for the weather conditions in past years. The results will help you decide how hot, cold, wet, or windy it might be!

Date:

Astronomy

Aug. 18, 2014 Rise Set
Actual Time 6:01 AM PDT 7:26 PM PDT
Civil Twilight 5:34 AM PDT 7:53 PM PDT
Nautical Twilight 5:02 AM PDT 8:25 PM PDT
Astronomical Twilight 4:28 AM PDT 8:59 PM PDT
Moon 12:14 AM PDT (8/18) 2:30 PM PDT (8/18)
Length of Visible Light 14h 19m
Length of Day
13h 25m
Last Quarter, 37% of the Moon is Illuminated
Aug 18
Last Quarter
Aug 25
New
Sep 2
First Quarter
Sep 8
Full
Sep 15
Last Quarter

Hourly Weather History & Observations

Time (PDT) Temp. Heat Index Dew Point Humidity Pressure Visibility Wind Dir Wind Speed Gust Speed Precip Events Conditions
12:56 AM 86.0 °F - 34.9 °F 16% 29.77 in 10.0 mi South 10.4 mph - N/A   Clear
1:56 AM 86.0 °F - 34.9 °F 16% 29.76 in 10.0 mi South 12.7 mph - N/A   Clear
2:56 AM 82.9 °F - 34.9 °F 18% 29.75 in 10.0 mi South 11.5 mph - N/A   Clear
3:56 AM 88.9 °F - 34.0 °F 14% 29.75 in 10.0 mi South 12.7 mph - N/A   Clear
4:56 AM 86.9 °F - 34.9 °F 16% 29.77 in 10.0 mi South 11.5 mph - N/A   Clear
5:56 AM 82.9 °F - 36.0 °F 19% 29.78 in 10.0 mi South 12.7 mph - N/A   Clear
6:56 AM 84.9 °F - 50.9 °F 31% 29.80 in 10.0 mi South 15.0 mph - N/A   Clear
7:56 AM 86.0 °F 85.0 °F 57.9 °F 38% 29.81 in 10.0 mi South 16.1 mph 24.2 mph N/A   Clear
8:56 AM 90.9 °F 88.7 °F 54.9 °F 29% 29.82 in 10.0 mi South 12.7 mph 23.0 mph N/A   Clear
9:56 AM 93.9 °F - 48.9 °F 21% 29.83 in 10.0 mi SSW 19.6 mph 26.5 mph N/A   Clear
10:56 AM 95.9 °F - 50.9 °F 22% 29.84 in 10.0 mi SSW 19.6 mph 27.6 mph N/A   Clear
11:56 AM 97.0 °F 95.7 °F 56.8 °F 26% 29.82 in 10.0 mi Variable 6.9 mph - N/A   Partly Cloudy
12:18 PM 98.6 °F 97.6 °F 57.2 °F 25% 29.90 in 10.0 mi SSE 23.0 mph 28.8 mph N/A   Partly Cloudy
12:56 PM 91.9 °F 90.8 °F 57.9 °F 32% 29.81 in 10.0 mi SE 25.3 mph 34.5 mph N/A   Clear
1:56 PM 95.9 °F 93.6 °F 54.0 °F 24% 29.79 in 10.0 mi SSE 19.6 mph 32.2 mph N/A   Clear
2:56 PM 92.8 °F - 50.9 °F 24% 29.78 in 10.0 mi SSE 16.1 mph - N/A   Clear
3:56 PM 93.9 °F - 50.9 °F 23% 29.74 in 10.0 mi SSE 17.3 mph - N/A   Clear
4:56 PM 93.9 °F - 50.0 °F 22% 29.72 in 10.0 mi SE 9.2 mph - N/A   Clear
5:56 PM 93.9 °F - 52.0 °F 24% 29.72 in 10.0 mi SE 9.2 mph - N/A   Clear
6:56 PM 92.8 °F - 52.9 °F 26% 29.72 in 10.0 mi SSE 11.5 mph - N/A   Clear
7:56 PM 90.9 °F 89.2 °F 55.9 °F 31% 29.73 in 10.0 mi SSE 12.7 mph 23.0 mph N/A   Clear
9:56 PM 88.9 °F 87.7 °F 57.9 °F 35% 29.74 in 10.0 mi SSE 15.0 mph - N/A   Clear
10:56 PM 88.0 °F 86.7 °F 56.8 °F 35% 29.75 in 10.0 mi SSE 12.7 mph - N/A   Clear
11:56 PM 86.9 °F 86.5 °F 59.9 °F 40% 29.73 in 10.0 mi SSE 18.4 mph - N/A   Mostly Cloudy